STARLINK-34382

Last updated on Sat Jul 19 2025 00:02:07 GMT+0000 (Coordinated Universal Time)

1 64667U 25139D 25199.58335648 -.01583591 00000+0 -35435-1 0 9991 2 64667 53.1589 138.1928 0001412 66.9725 109.7443 15.46059352 4380
UTC large
Height (km)
Speed (km/s)
/
Latitude / Longitude
Inclination (degrees)
Orbital Period (minutes)
Azimuth
Elevation
Range (km)
Doppler Factor

Next 0 passes for location: London (51.5072 / 0.1276)

Sorry there are no passes over London.